Regional Weather Roundup
Issued by NWS

Home | Current Version | Previous Version | Text Only | Print | Product List | Glossary Off
Versions: 1 2 3 4 5 6 7 8 9 10 11 12 13 14 15 16 17 18 19 20 21 22 23 24 25 26 27 28 29 30 31 32 33 34 35 36 37 38 39 40 41 42 43 44 45 46 47 48 49 50

000
ASUS45 KSLC 220710
RWRUT

UTAH REGIONAL WEATHER ROUNDUP
NATIONAL WEATHER SERVICE SALT LAKE CITY UT
100 AM MDT FRI AUG 22 2014

UTZ001>011-023>025-220800-

NORTHERN UTAH

CITY           SKY/WX    TMP DP  RH WIND       PRES   REMARKS
HILL AFB       CLOUDY    64  50  59 E13       30.04F
LOGAN          MOCLDY    59  53  80 NW13      30.09R
OGDEN          LGT RAIN  67  51  56 SE7       30.01F
PROVO AIRPORT  PTCLDY    63  48  59 SE5       30.06S
SALT LAKE CITY MOCLDY    63  52  67 E6        30.01F
VERNAL         MOCLDY    62  47  57 N7        30.14F
WENDOVER       CLOUDY    70  46  43 NE6       30.01S
HEBER CITY     CLEAR     52  46  82 CALM      30.13R
WEST JORDAN    CLEAR     66  55  68 W7        30.05R

$$

UTZ012>022-026-027-220800-

SOUTHERN UTAH

CITY           SKY/WX    TMP DP  RH WIND       PRES   REMARKS
BRYCE CANYON   MOCLDY    51  45  79 CALM      30.30S
CEDAR CITY     PTCLDY    60  50  69 S6        30.15S
MILFORD        CLEAR     63  51  65 S13       30.10
MOAB/CYNLANDS  CLEAR     68  51  54 SW6       30.04F
PRICE          PTCLDY    65  44  46 NE7       30.14F
ST GEORGE      SUNNY     72  52  49 SE8       30.06S
KANAB          MOCLDY    63  54  72 CALM      30.19F

$$

REGIONAL REPORTS     COLORADO/ARIZONA

CITY           SKY/WX    TMP DP  RH WIND       PRES   REMARKS
CRAIG, CO      PTCLDY    53  49  86 E3        30.22S
GRAND JUNCTION CLOUDY    64  51  62 E3        30.08S
RIFLE          CLOUDY    64  48  56 CALM      30.14S
MONTROSE       CLOUDY    64  48  56 S5        30.18S
CORTEZ         RAIN      60  54  80 SW14      30.25R
PAGE, AZ       CLOUDY    66  57  72 SE3       30.14S
GRAND CANYON     N/A    N/A N/A N/A MISG        N/A
KINGMAN        CLEAR     63  57  81 SE9       30.08S
FLAGSTAFF      CLOUDY    53  51  93 CALM      30.29F

$$

REGIONAL REPORTS    NEVADA/IDAHO/WYOMING

CITY           SKY/WX    TMP DP  RH WIND       PRES   REMARKS
LAS VEGAS, NV  PTCLDY    75  51  43 S10       29.95S
ELY            MOCLDY    65  43  44 SE15      30.13S
ELKO           PTCLDY    64  44  48 CALM      30.01R
POCATELLO, ID  CLEAR     60  51  72 E10       30.04F
BURLEY         LGT RAIN  59  55  87 N3        30.01S
EVANSTON, WY   PTCLDY    53  43  68 E6        30.20S
ROCK SPRINGS   MOCLDY    54  44  69 S7        30.21S

$$



USA.gov is the U.S. government's official web portal to all federal, state and local government web resources and services.